Aérodrome :
LOGIN :

S'inscrire | Disclaimer

   EN    FR    IT 

 










Légende :    VFR   VFR Marginal   IFR   IFR Intensif   IFR Très Intensif
Visi : 
Plafond : 
>= 8 km
>= 3000ft
5 à 8 km
1000 à 3000 ft
1500m à 5 km
500 à 1000 ft
800 à 1500m
200 à 500 ft
< 800m
< 200 ft
Symboles :   Orages  Brouillard  Fortes neiges  Fortes précipitations  Vent > 20 kt
SIGMETs :   Divers  Orages  Givrage  Turbulence  Onde Orograph.  Cendres Volcan.






- Altitude de l'aérodrome : 138 ft
- Code IATA : RLG


ETNL - Rostock Laage

DERNIER METAR :
  • 241020Z 26008KT 9999 SCT025 BKN090 19/13 Q1002 BLU

METARs EXPIRÉS :
  • 240920Z 22006KT 9999 FEW040 BKN100 BKN150 18/13 Q1001 BLU
  • 240820Z 20006KT 9999 FEW050 BKN070 16/13 Q1001 RERA BLU

TAF TAF ETNL
Valide du 24 à 11h jusqu'au 24 à 20h UTC


241011Z 2411/2420 23010G20KT 9999 NSW SCT035
BECMG 2415/2417 20008KT 9999 NSW FEW050 SCT150 BY ETGL



MET'MAP, la Météo Aéronautique d'un coup d'oeil ! - Copyright ORBIFLY Décembre 2007 - Disclaimer

ORBIFLY MET'MAP TEAM :

Programmation & Développement : Alexandra Zaïnal
Sur une idée originale de : Baudouin d'Aumeries
Assistance à la programmation : Marc-Olivier Méhu
Soutien technique & logistique : Manuel Goepfert

Contact : metmap@orbifly.com




SOURCES & CREDITS :

   NOAA